DW6099 Weather Reports


Display with metric or nautical units.
time (UTC)temp
F
wind
direction
speed
MPH
gust
MPH
rain 1hr
in
rain 24hr
in
rain mn
in
humidity
%
barometer
mb
20260502220053 64 19 1.0 6.0 0.00 0.01 0.01 73 1002.4
20260502214558 65 30 0.0 5.0 0.00 0.01 0.01 72 1002.4
20260502213050 64 14 2.0 7.0 0.00 0.01 0.01 76 1002.4
20260502211550 64 20 0.0 6.0 0.00 0.01 0.01 75 1002.4
20260502210053 63 25 0.0 8.0 0.00 0.01 0.01 73 1002.4
20260502204553 62 15 5.0 11.0 0.00 0.01 0.01 74 1002.4
20260502203049 62 20 2.0 8.0 0.00 0.01 0.01 77 1002.4
20260502201544 61 26 0.0 8.0 0.00 0.01 0.01 72 1002.4
20260502200143 61 9 1.0 8.0 0.00 0.01 0.01 79 1002.4
20260502194539 61 11 3.0 8.0 0.00 0.01 0.01 77 1002.4
20260502193039 59 18 4.0 7.0 0.00 0.01 0.01 79 1002.4
20260502191539 59 17 4.0 7.0 0.00 0.01 0.01 80 1002.4
20260502190043 59 13 3.0 7.0 0.00 0.01 0.01 78 1002.4
20260502184537 59 5 4.0 8.0 0.00 0.01 0.01 78 1002.4
20260502183033 58 13 1.0 5.0 0.00 0.01 0.01 81 1002.4
20260502181537 57 16 4.0 7.0 0.00 0.01 0.01 81 1002.4
20260502163035 53 15 2.0 9.0 0.00 0.00 0.00 85 1002.4
20260502161523 53 17 0.0 7.0 0.00 0.00 0.00 88 1002.4
20260502151529 52 360 0.0 0.0 0.00 0.00 0.00 89 1002.4
20260502123019 52 261 0.0 0.0 0.00 0.00 0.00 89 1002.4
20260502121505 52 261 0.0 0.0 0.00 0.00 0.00 89 1002.4
20260502114503 52 261 0.0 0.0 0.00 0.00 0.00 88 1002.4
20260502113001 52 261 0.0 0.0 0.00 0.00 0.00 86 1002.4
20260502111603 52 261 0.0 0.0 0.00 0.00 0.00 85 1002.4
20260502110059 53 261 0.0 0.0 0.00 0.00 0.00 86 1002.4
20260502104559 53 261 0.0 0.0 0.00 0.00 0.00 85 1002.4
20260502103108 53 261 0.0 0.0 0.00 0.00 0.00 86 1002.4
20260502101612 53 261 0.0 0.0 0.00 0.00 0.00 86 1002.4
20260502100132 53 263 0.0 0.0 0.00 0.00 0.00 86 1002.4
20260502090112 53 263 0.0 0.0 0.00 0.00 0.00 85 1002.4
20260502070050 53 263 0.0 0.0 0.00 0.00 0.00 80 1002.4
20260502064550 53 265 0.0 0.0 0.00 0.00 0.00 80 1002.4
20260502063046 53 265 0.0 0.0 0.00 0.00 0.00 79 1002.4
20260502061553 54 265 0.0 0.0 0.00 0.00 0.00 78 1002.4
20260502060044 54 265 0.0 0.0 0.00 0.00 0.00 77 1002.4
20260502054543 55 265 0.0 0.0 0.00 0.00 0.00 76 1002.4
20260502053043 55 269 0.0 0.0 0.00 0.00 0.00 76 1002.4
20260502051543 55 269 0.0 0.0 0.00 0.00 0.00 75 1002.4
20260502050042 56 269 0.0 4.0 0.00 0.00 0.00 74 1002.4
20260502044542 56 265 1.0 5.0 0.00 0.00 0.00 75 1002.4
20260502043045 56 208 0.0 3.0 0.00 0.00 0.00 75 1002.4
20260502041545 57 223 0.0 4.0 0.00 0.00 0.00 73 1002.4
20260502040041 58 289 0.0 2.0 0.00 0.00 0.00 71 1002.4
20260502034545 58 261 0.0 3.0 0.00 0.00 0.00 71 1002.4
20260502033041 59 272 0.0 4.0 0.00 0.00 0.00 70 1002.4
20260502031540 59 276 0.0 0.0 0.00 0.00 0.00 70 1002.4
20260502030039 61 271 1.0 8.0 0.00 0.00 0.00 69 1002.4
20260502024540 61 269 0.0 3.0 0.00 0.00 0.00 68 1002.4
20260502023039 62 273 0.0 6.0 0.00 0.00 0.00 68 1002.4
20260502021538 63 277 0.0 1.0 0.00 0.00 0.00 66 1002.4
20260502020037 64 275 0.0 0.0 0.00 0.00 0.00 65 1002.4
20260502014538 65 274 0.0 0.0 0.00 0.00 0.00 65 1002.4
20260502013037 66 275 0.0 2.0 0.00 0.00 0.00 63 1002.4
20260502011538 67 346 0.0 0.0 0.00 0.00 0.00 62 1002.4
20260502010035 68 336 0.0 0.0 0.00 0.00 0.00 61 1002.4
20260502004535 69 270 0.0 6.0 0.00 0.00 0.00 61 1002.4
20260502003034 69 257 0.0 6.0 0.00 0.00 0.00 58 1002.4
20260502001534 70 270 0.0 5.0 0.00 0.00 0.00 57 1002.4
20260502000036 70 267 1.0 10.0 0.00 0.00 0.00 55 1002.4
20260501234533 71 266 1.0 7.0 0.00 0.00 0.00 55 1002.4
20260501233032 71 217 0.0 9.0 0.00 0.00 0.00 56 1002.4
20260501231532 71 267 3.0 9.0 0.00 0.00 0.00 54 1002.4
20260501230031 73 265 2.0 10.0 0.00 0.00 0.00 52 1002.4
20260501224532 72 197 0.0 7.0 0.00 0.00 0.00 55 1002.4
20260501223033 72 265 3.0 8.0 0.00 0.00 0.00 53 1002.4
20260501221533 72 259 0.0 9.0 0.00 0.00 0.00 54 1002.4